View from above orbital plane
|
View from above satellite
|
Ground track
|
The orbit data is extracted from the following two-line orbital elements,
1 24298U 96051B 13140.04752372 .00000090 00000-0 74816-4 0 1840
2 24298 070.8694 319.4910 0019207 241.3082 266.1561 14.12432418861559
| Epoch (UTC): | 20 May 2013 01:08:26 |
| Eccentricity: | 0.0019207 |
| inclination: | 70.8694° |
| perigee height: | 837 km |
| apogee height: | 865 km |
| right ascension of ascending node: | 319.4910° |
| argument of perigee: | 241.3082° |
| revolutions per day: | 14.12432418 |
| mean anomaly at epoch: | 266.1561° |
| orbit number at epoch: | 86155 |
The dashed part of the orbit path shows where the satellite is in the earth's shadow,
|
|